WXM80 ListenWXM80 Stop

You find our weather info also at:

UK Metoffice

WeatherCloud

Weather Underground

Northeastern Weather Network

AWEKAS

Citizen Weather Observer Program (CWOP)

HAMweather, WeatherForYou, PWS Weather


Weather Underground History page Text

Daily Summary for May 27, 2017 Units:  English    Metric   Both
« Previous Day
Next Day »
Daily Weekly Monthly Yearly Custom
  High: Low: Average:
Temperature: 77.6 °F 54.6 °F 63.7 °F
Dew Point: 62.9 °F 52.3 °F 57.2 °F
Humidity: 96 % 54 % 80 %
Wind Speed: 6.5 mph 0.0 mph 1.2 mph
Wind Gust: 12.7 mph - -
Wind:- - South
Pressure: 29.89 in 29.74 in -
Precipitation: 0.00 in    
Historical Graphs
 
 
Tabular Data for May 27, 2017
Time Temperature Dew Point Pressure Wind Wind Speed Wind Gust Humidity Rainfall Rate (Hourly)
00:00 61.9 °F 55.7 °F 29.74 in NW 0.3 mph 2.3 mph 80 % 0.00 in
00:05 61.7 °F 55.8 °F 29.75 in NW 0.8 mph 2.3 mph 81 % 0.00 in
00:10 61.4 °F 55.5 °F 29.75 in Calm     81 % 0.00 in
00:15 61.3 °F 55.4 °F 29.75 in NW 0.1 mph   81 % 0.00 in
00:20 61.1 °F 55.2 °F 29.75 in NW 0.5 mph 1.2 mph 81 % 0.00 in
00:25 60.9 °F 55.4 °F 29.75 in NW 0.4 mph 2.3 mph 82 % 0.00 in
00:30 60.7 °F 55.2 °F 29.75 in NW 0.7 mph 1.2 mph 82 % 0.00 in
00:35 60.5 °F 55.3 °F 29.75 in NNW 0.8 mph 3.5 mph 83 % 0.00 in
00:36 60.5 °F 55.3 °F 29.76 in Calm   2.3 mph 83 % 0.00 in
00:41 60.4 °F 55.2 °F 29.76 in Calm     83 % 0.00 in
00:46 60.2 °F 55.0 °F 29.76 in NNW 0.3 mph 1.2 mph 83 % 0.00 in
00:51 60.1 °F 54.9 °F 29.76 in Calm     83 % 0.00 in
00:56 60.0 °F 54.8 °F 29.76 in Calm     83 % 0.00 in
01:01 59.9 °F 55.1 °F 29.76 in Calm     84 % 0.00 in
01:06 59.7 °F 54.9 °F 29.76 in Calm     84 % 0.00 in
01:11 59.6 °F 54.8 °F 29.76 in Calm     84 % 0.00 in
01:16 59.5 °F 55.0 °F 29.77 in NNW 0.2 mph   85 % 0.00 in
01:21 59.4 °F 54.9 °F 29.77 in Calm     85 % 0.00 in
01:26 59.3 °F 55.1 °F 29.77 in North 0.1 mph 1.2 mph 86 % 0.00 in
01:31 59.2 °F 55.3 °F 29.77 in Calm     87 % 0.00 in
01:36 59.1 °F 55.2 °F 29.77 in Calm   1.2 mph 87 % 0.00 in
01:41 59.1 °F 55.2 °F 29.77 in Calm   2.3 mph 87 % 0.00 in
01:46 59.0 °F 55.4 °F 29.77 in North 0.3 mph 1.2 mph 88 % 0.00 in
01:51 58.9 °F 55.7 °F 29.77 in North 0.9 mph   89 % 0.00 in
01:56 58.9 °F 55.7 °F 29.77 in NNW 0.4 mph 1.2 mph 89 % 0.00 in
02:01 58.8 °F 55.6 °F 29.77 in NNW 0.1 mph   89 % 0.00 in
02:07 58.8 °F 55.6 °F 29.77 in NNW 0.5 mph 1.2 mph 89 % 0.00 in
02:12 58.7 °F 55.5 °F 29.77 in Calm   2.3 mph 89 % 0.00 in
02:17 58.7 °F 55.5 °F 29.77 in NW 0.7 mph 3.5 mph 89 % 0.00 in
02:22 58.7 °F 55.5 °F 29.77 in Calm   1.2 mph 89 % 0.00 in
02:27 58.6 °F 55.4 °F 29.77 in NW 0.3 mph 1.2 mph 89 % 0.00 in
02:32 58.6 °F 55.4 °F 29.77 in Calm     89 % 0.00 in
02:42 58.5 °F 55.3 °F 29.77 in Calm   1.2 mph 89 % 0.00 in
02:47 58.5 °F 55.3 °F 29.77 in Calm     89 % 0.00 in
02:52 58.4 °F 55.2 °F 29.77 in NW 0.1 mph 1.2 mph 89 % 0.00 in
02:57 58.4 °F 55.2 °F 29.77 in Calm     89 % 0.00 in
03:02 58.3 °F 55.1 °F 29.77 in Calm   1.2 mph 89 % 0.00 in
03:07 58.2 °F 55.0 °F 29.77 in Calm     89 % 0.00 in
03:12 58.1 °F 54.9 °F 29.78 in NW 0.3 mph 1.2 mph 89 % 0.00 in
03:17 58.0 °F 54.8 °F 29.78 in Calm   2.3 mph 89 % 0.00 in
03:22 57.9 °F 54.7 °F 29.78 in Calm   1.2 mph 89 % 0.00 in
03:27 57.8 °F 54.9 °F 29.78 in Calm     90 % 0.00 in
03:32 57.7 °F 54.8 °F 29.78 in Calm     90 % 0.00 in
03:37 57.7 °F 54.8 °F 29.78 in Calm     90 % 0.00 in
03:42 57.6 °F 54.7 °F 29.78 in Calm     90 % 0.00 in
03:47 57.5 °F 54.3 °F 29.78 in Calm     89 % 0.00 in
03:52 57.3 °F 54.4 °F 29.78 in Calm     90 % 0.00 in
03:57 57.2 °F 54.3 °F 29.78 in Calm     90 % 0.00 in
04:02 57.1 °F 54.2 °F 29.78 in Calm     90 % 0.00 in
04:07 57.0 °F 54.1 °F 29.78 in Calm     90 % 0.00 in
04:13 56.9 °F 54.0 °F 29.79 in Calm   1.2 mph 90 % 0.00 in
04:18 56.8 °F 53.9 °F 29.79 in NW 0.6 mph 1.2 mph 90 % 0.00 in
04:23 56.7 °F 54.1 °F 29.79 in NW 0.1 mph 2.3 mph 91 % 0.00 in
04:28 56.6 °F 54.0 °F 29.79 in Calm     91 % 0.00 in
04:33 56.5 °F 53.9 °F 29.79 in Calm     91 % 0.00 in
04:38 56.4 °F 53.8 °F 29.79 in Calm   2.3 mph 91 % 0.00 in
04:43 56.3 °F 53.7 °F 29.79 in Calm     91 % 0.00 in
04:48 56.2 °F 53.6 °F 29.79 in Calm   1.2 mph 91 % 0.00 in
04:53 56.1 °F 53.5 °F 29.80 in NW 0.1 mph 1.2 mph 91 % 0.00 in
04:58 56.1 °F 53.5 °F 29.80 in Calm     91 % 0.00 in
05:03 56.0 °F 53.4 °F 29.80 in Calm     91 % 0.00 in
05:08 55.9 °F 53.3 °F 29.81 in Calm     91 % 0.00 in
05:13 55.8 °F 53.2 °F 29.80 in Calm     91 % 0.00 in
05:18 55.7 °F 53.1 °F 29.80 in Calm     91 % 0.00 in
05:23 55.5 °F 52.9 °F 29.81 in Calm     91 % 0.00 in
05:28 55.4 °F 52.8 °F 29.81 in Calm     91 % 0.00 in
05:33 55.3 °F 52.7 °F 29.81 in Calm     91 % 0.00 in
05:38 55.2 °F 52.6 °F 29.81 in NW 0.1 mph 1.2 mph 91 % 0.00 in
05:43 55.1 °F 52.5 °F 29.82 in Calm     91 % 0.00 in
05:48 55.0 °F 52.7 °F 29.82 in Calm     92 % 0.00 in
05:50 54.9 °F 52.6 °F 29.82 in Calm     92 % 0.00 in
05:55 54.8 °F 52.5 °F 29.83 in Calm     92 % 0.00 in
06:00 54.8 °F 52.5 °F 29.82 in Calm     92 % 0.00 in
06:05 54.7 °F 52.4 °F 29.82 in Calm     92 % 0.00 in
06:10 54.6 °F 52.3 °F 29.83 in Calm     92 % 0.00 in
06:15 54.6 °F 52.3 °F 29.83 in Calm     92 % 0.00 in
06:20 54.8 °F 52.8 °F 29.83 in Calm     93 % 0.00 in
06:23 54.8 °F 52.8 °F 29.83 in Calm     93 % 0.00 in
06:28 55.0 °F 53.3 °F 29.83 in Calm     94 % 0.00 in
06:33 55.1 °F 53.4 °F 29.83 in Calm     94 % 0.00 in
06:38 55.3 °F 53.6 °F 29.84 in Calm     94 % 0.00 in
06:43 55.5 °F 53.8 °F 29.84 in Calm     94 % 0.00 in
06:48 55.7 °F 54.3 °F 29.83 in Calm     95 % 0.00 in
06:53 56.0 °F 54.6 °F 29.84 in North 0.1 mph 1.2 mph 95 % 0.00 in
06:58 56.3 °F 54.9 °F 29.84 in NNW 0.2 mph 3.5 mph 95 % 0.00 in
07:03 56.6 °F 55.5 °F 29.84 in NNW 0.2 mph 2.0 mph 96 % 0.00 in
07:08 56.8 °F 55.7 °F 29.83 in WNW 0.2 mph 2.3 mph 96 % 0.00 in
07:13 57.1 °F 56.0 °F 29.83 in WNW 1.6 mph 3.5 mph 96 % 0.00 in
07:18 57.4 °F 56.3 °F 29.83 in WNW 0.2 mph 1.2 mph 96 % 0.00 in
07:23 57.6 °F 56.5 °F 29.83 in WNW 0.1 mph 1.2 mph 96 % 0.00 in
07:28 57.9 °F 56.8 °F 29.83 in Calm     96 % 0.00 in
07:33 58.1 °F 57.0 °F 29.83 in WNW 1.1 mph 3.5 mph 96 % 0.00 in
07:38 58.3 °F 57.2 °F 29.83 in WNW 2.1 mph 3.5 mph 96 % 0.00 in
07:43 58.5 °F 57.4 °F 29.83 in NW 2.0 mph 4.0 mph 96 % 0.00 in
07:48 58.6 °F 57.5 °F 29.83 in WNW 0.8 mph 2.3 mph 96 % 0.00 in
07:53 58.8 °F 57.7 °F 29.83 in NW 1.9 mph 4.0 mph 96 % 0.00 in
07:58 59.0 °F 57.6 °F 29.83 in Calm   3.5 mph 95 % 0.00 in
07:59 59.0 °F 57.6 °F 29.83 in NW 0.3 mph 2.0 mph 95 % 0.00 in
08:04 59.2 °F 57.8 °F 29.84 in NNW 1.2 mph 3.0 mph 95 % 0.00 in
08:09 59.4 °F 57.7 °F 29.83 in North 0.2 mph 1.2 mph 94 % 0.00 in
08:14 59.6 °F 57.6 °F 29.84 in NW 1.0 mph 3.5 mph 93 % 0.00 in
08:19 60.0 °F 58.0 °F 29.83 in NW 1.0 mph 2.0 mph 93 % 0.00 in
08:24 60.3 °F 58.0 °F 29.83 in NW 0.8 mph 3.5 mph 92 % 0.00 in
08:29 60.6 °F 58.0 °F 29.84 in NW 0.4 mph 3.5 mph 91 % 0.00 in
08:34 61.0 °F 58.0 °F 29.84 in WNW 0.1 mph 1.2 mph 90 % 0.00 in
08:36 61.1 °F 58.1 °F 29.83 in Calm   4.0 mph 90 % 0.00 in
08:41 61.3 °F 57.7 °F 29.84 in WNW 1.0 mph 4.0 mph 88 % 0.00 in
08:46 61.6 °F 57.7 °F 29.84 in WNW 1.0 mph 5.0 mph 87 % 0.00 in
08:51 61.9 °F 58.0 °F 29.84 in WNW 1.0 mph 4.0 mph 87 % 0.00 in
08:56 62.2 °F 57.6 °F 29.83 in NW 2.0 mph 5.0 mph 85 % 0.00 in
09:01 62.5 °F 57.6 °F 29.84 in WNW 2.4 mph 5.0 mph 84 % 0.00 in
09:06 62.8 °F 57.2 °F 29.84 in NW 1.3 mph 3.5 mph 82 % 0.00 in
09:11 63.0 °F 57.1 °F 29.84 in WNW 1.2 mph 3.5 mph 81 % 0.00 in
09:16 63.1 °F 57.2 °F 29.84 in NE 1.4 mph 3.5 mph 81 % 0.00 in
09:21 63.3 °F 57.4 °F 29.83 in North 0.8 mph 2.3 mph 81 % 0.00 in
09:26 63.6 °F 58.0 °F 29.83 in NW 1.5 mph 3.5 mph 82 % 0.00 in
09:31 63.9 °F 58.0 °F 29.84 in NW 0.6 mph 1.2 mph 81 % 0.00 in
09:36 64.2 °F 57.9 °F 29.83 in WNW 1.7 mph 4.6 mph 80 % 0.00 in
09:41 64.7 °F 58.4 °F 29.84 in Calm     80 % 0.00 in
09:46 65.2 °F 58.5 °F 29.83 in NW 1.2 mph 2.3 mph 79 % 0.00 in
09:51 66.0 °F 58.6 °F 29.83 in NNW 3.3 mph 4.0 mph 77 % 0.00 in
09:56 66.7 °F 58.5 °F 29.83 in North 2.4 mph 4.0 mph 75 % 0.00 in
10:01 67.5 °F 59.3 °F 29.84 in NNE 3.3 mph 5.8 mph 75 % 0.00 in
10:06 68.3 °F 58.9 °F 29.84 in NW 3.6 mph 5.8 mph 72 % 0.00 in
10:11 69.0 °F 59.6 °F 29.84 in NNE 1.0 mph 2.0 mph 72 % 0.00 in
10:16 69.6 °F 59.0 °F 29.84 in NNW 0.7 mph 3.5 mph 69 % 0.00 in
10:21 70.3 °F 59.6 °F 29.84 in NNW 0.1 mph 2.3 mph 69 % 0.00 in
10:26 71.0 °F 60.7 °F 29.83 in ENE 0.1 mph 2.0 mph 70 % 0.00 in
10:31 71.6 °F 60.1 °F 29.83 in North 0.9 mph 3.5 mph 67 % 0.00 in
10:36 72.0 °F 58.7 °F 29.83 in ENE 2.5 mph 3.5 mph 63 % 0.00 in
10:42 72.4 °F 61.2 °F 29.83 in NNW 1.5 mph 4.0 mph 68 % 0.00 in
10:47 72.8 °F 60.8 °F 29.83 in ENE 0.2 mph 3.5 mph 66 % 0.00 in
10:52 73.3 °F 60.4 °F 29.83 in North 0.9 mph 3.5 mph 64 % 0.00 in
10:57 73.8 °F 60.0 °F 29.83 in ENE 2.1 mph 4.0 mph 62 % 0.00 in
11:02 74.0 °F 60.6 °F 29.83 in North 2.7 mph 5.0 mph 63 % 0.00 in
11:07 74.6 °F 62.1 °F 29.83 in NNW 1.4 mph 3.0 mph 65 % 0.00 in
11:12 74.9 °F 61.0 °F 29.83 in North 2.3 mph 4.6 mph 62 % 0.00 in
11:17 75.3 °F 60.9 °F 29.83 in NNE 0.2 mph 1.2 mph 61 % 0.00 in
11:22 75.4 °F 61.0 °F 29.84 in NW 1.5 mph 3.5 mph 61 % 0.00 in
11:27 75.4 °F 59.6 °F 29.83 in North 0.7 mph 1.2 mph 58 % 0.00 in
11:32 75.5 °F 59.7 °F 29.84 in WNW 1.7 mph 3.0 mph 58 % 0.00 in
11:37 75.7 °F 61.8 °F 29.84 in West 1.6 mph 3.5 mph 62 % 0.00 in
11:42 76.0 °F 61.1 °F 29.83 in WNW 0.7 mph 2.3 mph 60 % 0.00 in
11:47 76.1 °F 59.3 °F 29.83 in SSW 1.0 mph 3.5 mph 56 % 0.00 in
11:52 76.3 °F 59.4 °F 29.83 in NNW 2.2 mph 4.6 mph 56 % 0.00 in
11:57 76.4 °F 62.4 °F 29.84 in North 2.5 mph 4.0 mph 62 % 0.00 in
12:02 76.4 °F 62.9 °F 29.84 in NE 1.5 mph 3.0 mph 63 % 0.00 in
12:08 76.8 °F 62.3 °F 29.83 in ENE 1.8 mph 2.3 mph 61 % 0.00 in
12:13 77.0 °F 60.1 °F 29.84 in North 2.7 mph 4.6 mph 56 % 0.00 in
12:18 77.2 °F 59.8 °F 29.84 in NW 1.0 mph 4.6 mph 55 % 0.00 in
12:23 77.4 °F 61.0 °F 29.84 in North 1.3 mph 5.0 mph 57 % 0.00 in
12:28 77.5 °F 60.6 °F 29.84 in North 3.1 mph 5.0 mph 56 % 0.00 in
12:33 77.4 °F 59.5 °F 29.83 in NNE 3.4 mph 4.6 mph 54 % 0.00 in
12:38 77.6 °F 61.2 °F 29.83 in ENE 3.9 mph 5.8 mph 57 % 0.00 in
12:43 77.5 °F 60.6 °F 29.83 in NE 4.6 mph 8.0 mph 56 % 0.00 in
12:48 76.8 °F 60.4 °F 29.83 in ENE 3.0 mph 4.6 mph 57 % 0.00 in
12:53 76.1 °F 59.3 °F 29.83 in ENE 2.6 mph 3.5 mph 56 % 0.00 in
12:58 75.6 °F 59.3 °F 29.83 in ENE 3.8 mph 5.0 mph 57 % 0.00 in
13:03 75.1 °F 59.3 °F 29.84 in ENE 2.5 mph 4.0 mph 58 % 0.00 in
13:08 74.8 °F 59.0 °F 29.83 in ENE 3.1 mph 4.0 mph 58 % 0.00 in
13:13 74.6 °F 59.3 °F 29.83 in NE 1.6 mph 3.5 mph 59 % 0.00 in
13:18 73.6 °F 58.4 °F 29.83 in ENE 2.1 mph 3.5 mph 59 % 0.00 in
13:23 72.4 °F 58.6 °F 29.83 in NE 1.0 mph 3.5 mph 62 % 0.00 in
13:28 71.8 °F 60.2 °F 29.83 in Calm   1.2 mph 67 % 0.00 in
13:33 71.6 °F 60.1 °F 29.84 in Calm   1.2 mph 67 % 0.00 in
13:38 71.5 °F 59.5 °F 29.84 in NE 1.0 mph 2.0 mph 66 % 0.00 in
13:43 71.0 °F 60.7 °F 29.84 in NE 1.3 mph 3.0 mph 70 % 0.00 in
13:48 70.4 °F 60.5 °F 29.84 in NE 2.2 mph 3.5 mph 71 % 0.00 in
13:53 69.8 °F 59.6 °F 29.84 in NE 1.4 mph 3.5 mph 70 % 0.00 in
13:58 69.2 °F 59.4 °F 29.83 in NE 0.1 mph 1.2 mph 71 % 0.00 in
14:03 69.1 °F 60.1 °F 29.84 in Calm     73 % 0.00 in
14:08 69.2 °F 59.8 °F 29.84 in Calm     72 % 0.00 in
14:13 69.1 °F 60.1 °F 29.84 in Calm     73 % 0.00 in
14:18 69.1 °F 60.5 °F 29.84 in NE 0.3 mph 2.0 mph 74 % 0.00 in
14:24 69.0 °F 60.4 °F 29.84 in NE 0.2 mph 3.5 mph 74 % 0.00 in
14:29 68.7 °F 60.1 °F 29.84 in Calm     74 % 0.00 in
14:34 68.5 °F 61.0 °F 29.83 in Calm     77 % 0.00 in
14:39 68.5 °F 60.6 °F 29.84 in ESE 1.6 mph 3.5 mph 76 % 0.00 in
14:44 68.5 °F 60.6 °F 29.83 in SE 1.5 mph 3.5 mph 76 % 0.00 in
14:49 68.5 °F 59.9 °F 29.83 in SE 0.1 mph   74 % 0.00 in
14:54 68.5 °F 59.9 °F 29.84 in SE 3.6 mph 5.8 mph 74 % 0.00 in
14:59 68.6 °F 59.6 °F 29.84 in SE 0.4 mph 2.0 mph 73 % 0.00 in
15:04 68.5 °F 59.5 °F 29.84 in SE 0.3 mph 2.0 mph 73 % 0.00 in
15:09 68.5 °F 60.6 °F 29.84 in Calm     76 % 0.00 in
15:14 68.4 °F 59.8 °F 29.83 in Calm     74 % 0.00 in
15:19 68.4 °F 59.8 °F 29.84 in Calm   1.2 mph 74 % 0.00 in
15:24 68.3 °F 60.1 °F 29.84 in Calm     75 % 0.00 in
15:29 68.3 °F 59.3 °F 29.84 in Calm   2.3 mph 73 % 0.00 in
15:34 68.3 °F 60.1 °F 29.84 in Calm     75 % 0.00 in
15:40 68.2 °F 59.6 °F 29.84 in SE 0.1 mph 1.2 mph 74 % 0.00 in
15:45 68.2 °F 59.6 °F 29.84 in Calm     74 % 0.00 in
15:50 68.3 °F 60.1 °F 29.83 in Calm     75 % 0.00 in
15:55 68.3 °F 60.8 °F 29.83 in SE 0.6 mph 2.3 mph 77 % 0.00 in
15:56 68.4 °F 60.5 °F 29.83 in Calm     76 % 0.00 in
16:01 68.5 °F 61.0 °F 29.83 in Calm     77 % 0.00 in
16:06 68.6 °F 61.1 °F 29.83 in Calm     77 % 0.00 in
16:11 68.7 °F 60.5 °F 29.83 in Calm     75 % 0.00 in
16:16 68.8 °F 60.6 °F 29.84 in SE 0.1 mph 1.2 mph 75 % 0.00 in
16:21 68.8 °F 59.8 °F 29.84 in South 0.5 mph 2.3 mph 73 % 0.00 in
16:26 69.0 °F 60.0 °F 29.84 in Calm   1.2 mph 73 % 0.00 in
16:31 69.1 °F 60.5 °F 29.84 in Calm   1.2 mph 74 % 0.00 in
16:36 69.2 °F 60.2 °F 29.84 in South 0.5 mph 2.3 mph 73 % 0.00 in
16:42 69.3 °F 60.3 °F 29.83 in SSE 2.7 mph 3.0 mph 73 % 0.00 in
16:47 69.4 °F 60.8 °F 29.84 in SSE 0.7 mph 3.5 mph 74 % 0.00 in
16:52 69.3 °F 59.5 °F 29.84 in SE 2.2 mph 5.8 mph 71 % 0.00 in
16:57 69.1 °F 59.3 °F 29.84 in SE 2.8 mph 6.0 mph 71 % 0.00 in
16:59 68.9 °F 59.1 °F 29.84 in SSE 3.4 mph 8.1 mph 71 % 0.00 in
17:04 68.5 °F 59.1 °F 29.84 in SSE 3.4 mph 6.9 mph 72 % 0.00 in
17:09 68.1 °F 58.7 °F 29.84 in SSE 4.7 mph 10.4 mph 72 % 0.00 in
17:14 67.9 °F 59.3 °F 29.84 in SE 1.3 mph 6.9 mph 74 % 0.00 in
17:19 67.7 °F 58.7 °F 29.84 in SE 3.0 mph 5.8 mph 73 % 0.00 in
17:24 67.5 °F 58.9 °F 29.84 in SSW 3.4 mph 6.9 mph 74 % 0.00 in
17:29 67.4 °F 58.4 °F 29.84 in SSE 3.5 mph 6.0 mph 73 % 0.00 in
17:34 67.0 °F 58.1 °F 29.84 in SSE 2.3 mph 3.5 mph 73 % 0.00 in
17:39 66.6 °F 57.7 °F 29.84 in SE 3.4 mph 6.9 mph 73 % 0.00 in
17:44 66.3 °F 57.8 °F 29.84 in SE 1.1 mph 3.5 mph 74 % 0.00 in
17:49 66.0 °F 57.5 °F 29.85 in SSE 3.9 mph 9.2 mph 74 % 0.00 in
17:54 65.8 °F 57.7 °F 29.85 in SE 4.5 mph 10.4 mph 75 % 0.00 in
17:59 65.6 °F 57.8 °F 29.85 in SE 3.0 mph 5.8 mph 76 % 0.00 in
18:04 65.4 °F 57.6 °F 29.85 in SSE 3.6 mph 8.1 mph 76 % 0.00 in
18:09 65.2 °F 57.4 °F 29.85 in South 4.1 mph 9.2 mph 76 % 0.00 in
18:14 65.0 °F 57.6 °F 29.85 in SE 3.0 mph 6.9 mph 77 % 0.00 in
18:19 64.9 °F 57.5 °F 29.85 in SE 0.8 mph 4.6 mph 77 % 0.00 in
18:24 64.8 °F 57.4 °F 29.85 in SSE 3.4 mph 5.8 mph 77 % 0.00 in
18:29 64.7 °F 57.7 °F 29.86 in SE 3.4 mph 8.1 mph 78 % 0.00 in
18:34 64.5 °F 57.5 °F 29.86 in SE 0.2 mph 1.2 mph 78 % 0.00 in
18:39 64.4 °F 57.7 °F 29.86 in SE 1.8 mph 3.5 mph 79 % 0.00 in
18:44 64.3 °F 57.3 °F 29.86 in SSE 2.2 mph 10.0 mph 78 % 0.00 in
18:49 64.1 °F 57.1 °F 29.86 in SE 3.2 mph 4.6 mph 78 % 0.00 in
18:54 64.0 °F 57.0 °F 29.86 in SSE 4.1 mph 6.9 mph 78 % 0.00 in
18:59 64.0 °F 57.0 °F 29.86 in SE 4.0 mph 10.4 mph 78 % 0.00 in
19:04 63.9 °F 56.9 °F 29.86 in SSE 1.8 mph 7.0 mph 78 % 0.00 in
19:09 63.8 °F 56.8 °F 29.86 in SE 2.8 mph 10.4 mph 78 % 0.00 in
19:10 63.8 °F 56.8 °F 29.86 in SE 5.0 mph 10.4 mph 78 % 0.00 in
19:15 63.7 °F 56.7 °F 29.86 in SE 3.8 mph 6.9 mph 78 % 0.00 in
19:20 63.5 °F 56.5 °F 29.86 in SSE 4.6 mph 10.4 mph 78 % 0.00 in
19:26 63.4 °F 56.4 °F 29.86 in South 4.5 mph 8.1 mph 78 % 0.00 in
19:31 63.3 °F 56.7 °F 29.86 in SSE 3.0 mph 9.0 mph 79 % 0.00 in
19:36 63.2 °F 56.6 °F 29.86 in SE 3.0 mph 10.0 mph 79 % 0.00 in
19:41 63.1 °F 56.5 °F 29.86 in SE 1.8 mph 4.6 mph 79 % 0.00 in
19:46 63.1 °F 56.5 °F 29.86 in SE 2.3 mph 5.8 mph 79 % 0.00 in
19:51 63.0 °F 56.7 °F 29.86 in SE 2.4 mph 5.0 mph 80 % 0.00 in
19:56 62.9 °F 56.3 °F 29.86 in ESE 3.7 mph 8.1 mph 79 % 0.00 in
20:01 62.8 °F 56.2 °F 29.86 in SE 0.5 mph 4.6 mph 79 % 0.00 in
20:06 62.7 °F 56.1 °F 29.86 in SE 2.3 mph 5.8 mph 79 % 0.00 in
20:11 62.7 °F 56.4 °F 29.86 in SSE 6.5 mph 10.4 mph 80 % 0.00 in
20:16 62.6 °F 56.3 °F 29.86 in South 3.7 mph 8.1 mph 80 % 0.00 in
20:21 62.5 °F 56.2 °F 29.86 in SSE 2.9 mph 6.9 mph 80 % 0.00 in
20:26 62.4 °F 56.1 °F 29.86 in SSE 1.8 mph 4.6 mph 80 % 0.00 in
20:31 62.3 °F 56.0 °F 29.86 in SE 2.3 mph 5.0 mph 80 % 0.00 in
20:36 62.3 °F 56.0 °F 29.86 in SSE 2.1 mph 5.8 mph 80 % 0.00 in
20:41 62.2 °F 56.3 °F 29.87 in SSE 0.4 mph 5.8 mph 81 % 0.00 in
20:46 62.1 °F 56.2 °F 29.87 in SE 3.5 mph 7.0 mph 81 % 0.00 in
20:51 62.1 °F 56.2 °F 29.87 in SSE 3.8 mph 4.0 mph 81 % 0.00 in
20:56 62.0 °F 56.1 °F 29.87 in SSE 1.5 mph 3.5 mph 81 % 0.00 in
21:01 62.0 °F 56.1 °F 29.87 in SSE 2.5 mph 4.6 mph 81 % 0.00 in
21:06 61.9 °F 56.0 °F 29.87 in SSE 2.8 mph 4.6 mph 81 % 0.00 in
21:11 61.8 °F 55.9 °F 29.88 in SSE 3.0 mph 5.8 mph 81 % 0.00 in
21:16 61.8 °F 55.9 °F 29.88 in South 1.2 mph 3.5 mph 81 % 0.00 in
21:21 61.7 °F 55.8 °F 29.88 in SE 0.1 mph 6.9 mph 81 % 0.00 in
21:26 61.7 °F 55.8 °F 29.88 in SSW 3.2 mph 6.9 mph 81 % 0.00 in
21:31 61.6 °F 55.7 °F 29.88 in SSE 0.7 mph 6.9 mph 81 % 0.00 in
21:37 61.6 °F 55.7 °F 29.88 in SSE 1.2 mph 3.5 mph 81 % 0.00 in
21:42 61.6 °F 55.7 °F 29.88 in SE 1.4 mph 4.6 mph 81 % 0.00 in
21:47 61.5 °F 55.6 °F 29.88 in South 3.8 mph 6.9 mph 81 % 0.00 in
21:52 61.5 °F 55.6 °F 29.88 in SSE 2.9 mph 4.6 mph 81 % 0.00 in
21:57 61.4 °F 55.5 °F 29.89 in SSE 5.3 mph 12.7 mph 81 % 0.00 in
22:02 61.4 °F 55.9 °F 29.89 in SSE 2.8 mph 6.9 mph 82 % 0.00 in
22:07 61.4 °F 55.9 °F 29.89 in SSE 2.0 mph 5.8 mph 82 % 0.00 in
22:12 61.4 °F 55.9 °F 29.89 in SSE 3.4 mph 6.9 mph 82 % 0.00 in
22:17 61.3 °F 55.8 °F 29.89 in SSE 3.2 mph 5.8 mph 82 % 0.00 in
22:22 61.3 °F 55.8 °F 29.89 in SSE 0.5 mph 2.3 mph 82 % 0.00 in
22:27 61.3 °F 56.1 °F 29.89 in South 0.5 mph 3.5 mph 83 % 0.00 in
22:32 61.3 °F 56.1 °F 29.89 in SE 1.2 mph 2.3 mph 83 % 0.00 in
22:37 61.3 °F 56.1 °F 29.89 in SE 2.7 mph 5.0 mph 83 % 0.00 in
22:43 61.2 °F 56.3 °F 29.89 in SE 1.5 mph 2.3 mph 84 % 0.00 in
22:48 61.2 °F 56.3 °F 29.89 in SSE 3.3 mph 5.0 mph 84 % 0.00 in
22:53 61.2 °F 56.7 °F 29.89 in SE 1.6 mph 4.6 mph 85 % 0.00 in
22:58 61.2 °F 56.7 °F 29.89 in SSE 1.5 mph 3.0 mph 85 % 0.00 in
23:03 61.2 °F 57.0 °F 29.89 in SE 0.4 mph 1.2 mph 86 % 0.00 in
23:04 61.2 °F 57.0 °F 29.89 in Calm   1.2 mph 86 % 0.00 in
23:09 61.2 °F 57.0 °F 29.89 in SE 1.0 mph 3.5 mph 86 % 0.00 in
23:14 61.2 °F 57.3 °F 29.89 in SSE 1.1 mph 3.5 mph 87 % 0.00 in
23:19 61.2 °F 57.3 °F 29.89 in SSE 0.6 mph 1.2 mph 87 % 0.00 in
23:24 61.1 °F 57.2 °F 29.89 in SE 0.7 mph 5.8 mph 87 % 0.00 in
23:29 61.1 °F 57.2 °F 29.89 in SE 1.7 mph 6.9 mph 87 % 0.00 in
23:34 61.0 °F 57.1 °F 29.88 in SSE 0.6 mph 4.6 mph 87 % 0.00 in
23:39 61.0 °F 57.1 °F 29.89 in SE 0.9 mph 3.5 mph 87 % 0.00 in
23:44 61.0 °F 57.4 °F 29.89 in SW 1.1 mph 3.5 mph 88 % 0.00 in
23:49 61.0 °F 57.4 °F 29.89 in SSE 0.3 mph 1.2 mph 88 % 0.00 in
23:54 61.0 °F 57.4 °F 29.89 in Calm     88 % 0.00 in
23:59 60.9 °F 57.3 °F 29.89 in Calm   1.2 mph 88 % 0.00 in
Crab Meadow Weather
Compliments of Weather Underground - 3 mb

Script developed by  Jim McMurry - jmcmurry@mwt.net Adapted for the template by  Wim van der Kuil - Leuven-Template.eu

Recycling: Americans use 85,000,000 tons of paper a year; about 680 pounds per person.